QTR15G OBBI-OMDB

Flight info

Callsign QTR15G
Flight time 0h 51m
Altitude 25000
Route BHR N697 SODAK P559 VUTEB
Aircraft A20N/M-SDE2E3FGHIRWXY/LB1

Departure

Time 2026-05-04 16:56
Airport Bahrain International Airport (OBBI)

Arrival

Time 2026-05-04 17:47
Airport Dubai International Airport (OMDB)
Time Latitude Longitude Altitude Speed Heading
2026-05-04 15:57 26.26584 50.63465 22 ft 0 kts 212°
2026-05-04 16:21 26.26675 50.63284 19 ft 0 kts 213°
2026-05-04 16:43 26.26689 50.63294 20 ft 2 kts 214°
2026-05-04 16:44 26.26743 50.63334 21 ft 2 kts 214°
2026-05-04 16:45 26.26746 50.63337 21 ft 0 kts 214°
2026-05-04 16:47 26.26760 50.63361 19 ft 2 kts 295°
2026-05-04 16:50 26.26776 50.63358 17 ft 3 kts 29°
2026-05-04 16:50 26.26816 50.63468 14 ft 13 kts 109°
2026-05-04 16:51 26.26760 50.63571 16 ft 10 kts 125°
2026-05-04 16:51 26.26718 50.63642 17 ft 12 kts 124°
2026-05-04 16:51 26.26597 50.63851 17 ft 19 kts 123°
2026-05-04 16:52 26.26426 50.64147 15 ft 27 kts 122°
2026-05-04 16:52 26.26320 50.64329 13 ft 30 kts 123°
2026-05-04 16:53 26.26103 50.64708 16 ft 21 kts 122°
2026-05-04 16:53 26.26033 50.64903 17 ft 0 kts 77°
2026-05-04 16:55 26.26092 50.64995 21 ft 9 kts 24°
2026-05-04 16:55 26.26162 50.64951 25 ft 16 kts 304°
2026-05-04 16:56 26.26806 50.63830 27 ft 142 kts 303°
2026-05-04 16:56 26.29180 50.61781 1642 ft 146 kts 348°
2026-05-04 16:57 26.30189 50.61503 2155 ft 157 kts 348°
2026-05-04 16:57 26.32605 50.60883 2919 ft 202 kts 348°
2026-05-04 16:58 26.37433 50.59798 4501 ft 263 kts 348°
2026-05-04 16:58 26.39254 50.59444 5405 ft 267 kts 348°
2026-05-04 16:59 26.43019 50.59661 7139 ft 289 kts 23°
2026-05-04 17:00 26.48796 50.66611 10464 ft 323 kts 49°
2026-05-04 17:00 26.53229 50.73117 11955 ft 365 kts 50°
2026-05-04 17:01 26.56280 50.77616 13705 ft 366 kts 50°
2026-05-04 17:01 26.59408 50.82224 14977 ft 378 kts 50°
2026-05-04 17:02 26.62630 50.86970 16262 ft 388 kts 50°
2026-05-04 17:02 26.65919 50.91830 16803 ft 395 kts 50°
2026-05-04 17:03 26.67591 50.94300 17339 ft 398 kts 50°
2026-05-04 17:03 26.69255 50.96769 18029 ft 402 kts 50°
2026-05-04 17:03 26.72674 51.01843 19186 ft 409 kts 50°
2026-05-04 17:04 26.75810 51.07249 20333 ft 422 kts 67°
2026-05-04 17:04 26.76447 51.13809 21459 ft 434 kts 99°
2026-05-04 17:05 26.74475 51.20235 22582 ft 442 kts 114°
2026-05-04 17:05 26.72100 51.26589 23631 ft 450 kts 112°
2026-05-04 17:06 26.69863 51.33259 24464 ft 460 kts 110°
2026-05-04 17:06 26.68765 51.36660 24701 ft 470 kts 110°
2026-05-04 17:07 26.66498 51.43709 24782 ft 498 kts 110°
2026-05-04 17:07 26.65699 51.46191 24780 ft 507 kts 110°
2026-05-04 17:07 26.64102 51.51168 24780 ft 518 kts 110°
2026-05-04 17:07 26.62884 51.54965 24780 ft 518 kts 110°
2026-05-04 17:08 26.61667 51.58753 24781 ft 518 kts 110°
2026-05-04 17:08 26.59225 51.66335 24780 ft 518 kts 110°
2026-05-04 17:08 26.58003 51.70120 24776 ft 518 kts 110°
2026-05-04 17:09 26.56779 51.73908 24775 ft 518 kts 110°
2026-05-04 17:09 26.55557 51.77687 24774 ft 518 kts 110°
2026-05-04 17:09 26.54332 51.81474 24773 ft 518 kts 110°
2026-05-04 17:10 26.51878 51.89039 24773 ft 518 kts 110°
2026-05-04 17:10 26.48113 52.00357 24774 ft 518 kts 111°
2026-05-04 17:11 26.46855 52.04125 24776 ft 518 kts 111°
2026-05-04 17:11 26.45598 52.07895 24774 ft 518 kts 111°
2026-05-04 17:11 26.43049 52.15527 24774 ft 531 kts 111°
2026-05-04 17:12 26.41757 52.19394 24770 ft 531 kts 111°
2026-05-04 17:12 26.39186 52.27069 24769 ft 531 kts 111°
2026-05-04 17:13 26.35298 52.38646 24765 ft 531 kts 111°
2026-05-04 17:14 26.30972 52.50025 24767 ft 531 kts 114°
2026-05-04 17:14 26.29494 52.53800 24769 ft 531 kts 114°
2026-05-04 17:14 26.27055 52.60094 24765 ft 531 kts 114°
2026-05-04 17:15 26.25598 52.63875 24769 ft 531 kts 114°
2026-05-04 17:15 26.22689 52.71439 24771 ft 531 kts 114°
2026-05-04 17:16 26.19796 52.79009 24769 ft 531 kts 114°
2026-05-04 17:16 26.15450 52.90344 24769 ft 531 kts 114°
2026-05-04 17:17 26.13996 52.94126 24768 ft 531 kts 114°
2026-05-04 17:17 26.09642 53.05462 24772 ft 531 kts 113°
2026-05-04 17:18 26.08251 53.09215 24772 ft 531 kts 112°
2026-05-04 17:18 26.05472 53.16834 24769 ft 531 kts 112°
2026-05-04 17:19 26.02683 53.24437 24771 ft 531 kts 112°
2026-05-04 17:19 25.99883 53.32029 24762 ft 531 kts 112°
2026-05-04 17:20 25.97074 53.39627 24769 ft 531 kts 113°
2026-05-04 17:20 25.94278 53.47176 24773 ft 531 kts 113°
2026-05-04 17:20 25.92874 53.50968 24769 ft 531 kts 112°
2026-05-04 17:21 25.90246 53.58573 24767 ft 531 kts 111°
2026-05-04 17:21 25.87622 53.66283 24766 ft 531 kts 111°
2026-05-04 17:22 25.86303 53.70122 24767 ft 531 kts 111°
2026-05-04 17:22 25.84979 53.73955 24768 ft 531 kts 111°
2026-05-04 17:23 25.81046 53.85304 24767 ft 522 kts 112°
2026-05-04 17:23 25.79735 53.89071 24762 ft 522 kts 112°
2026-05-04 17:23 25.77116 53.96588 24762 ft 518 kts 112°
2026-05-04 17:24 25.75834 54.00264 24762 ft 506 kts 112°
2026-05-04 17:24 25.72394 54.11356 24758 ft 509 kts 105°
2026-05-04 17:25 25.71716 54.15193 24604 ft 506 kts 99°
2026-05-04 17:25 25.70699 54.22833 23504 ft 495 kts 98°
2026-05-04 17:26 25.69666 54.30302 21940 ft 482 kts 99°
2026-05-04 17:26 25.68067 54.41130 20101 ft 472 kts 99°
2026-05-04 17:27 25.67002 54.48241 18936 ft 462 kts 99°
2026-05-04 17:27 25.65954 54.55215 17978 ft 455 kts 99°
2026-05-04 17:28 25.64918 54.62086 16963 ft 448 kts 99°
2026-05-04 17:29 25.63397 54.72134 15507 ft 435 kts 99°
2026-05-04 17:29 25.61910 54.81917 14118 ft 423 kts 98°
2026-05-04 17:30 25.59373 54.91159 12681 ft 416 kts 112°
2026-05-04 17:31 25.57101 54.96958 11705 ft 401 kts 112°
2026-05-04 17:31 25.53720 55.05112 10308 ft 376 kts 118°
2026-05-04 17:32 25.51191 55.09957 9769 ft 351 kts 118°
2026-05-04 17:33 25.48779 55.14606 9301 ft 328 kts 117°
2026-05-04 17:33 25.47768 55.16557 8969 ft 323 kts 117°
2026-05-04 17:34 25.43962 55.22440 8069 ft 304 kts 130°
2026-05-04 17:34 25.42564 55.24142 8028 ft 299 kts 130°
2026-05-04 17:35 25.38421 55.29242 8026 ft 301 kts 130°
2026-05-04 17:35 25.35505 55.32555 8006 ft 301 kts 140°
2026-05-04 17:35 25.33760 55.33801 7791 ft 301 kts 151°
2026-05-04 17:36 25.31901 55.34863 7435 ft 300 kts 151°
2026-05-04 17:36 25.30052 55.35933 7058 ft 299 kts 151°
2026-05-04 17:36 25.28215 55.37004 6684 ft 297 kts 151°
2026-05-04 17:36 25.26394 55.38070 6311 ft 296 kts 151°
2026-05-04 17:37 25.24588 55.39128 6099 ft 292 kts 151°
2026-05-04 17:37 25.22776 55.40191 6038 ft 295 kts 151°
2026-05-04 17:37 25.20967 55.41251 6028 ft 294 kts 151°
2026-05-04 17:37 25.19154 55.42313 6029 ft 294 kts 151°
2026-05-04 17:38 25.17316 55.43388 6032 ft 295 kts 151°
2026-05-04 17:38 25.15505 55.44448 6032 ft 295 kts 151°
2026-05-04 17:38 25.13692 55.45509 6025 ft 294 kts 151°
2026-05-04 17:38 25.11933 55.46625 5811 ft 291 kts 142°
2026-05-04 17:39 25.09464 55.50044 5120 ft 285 kts 119°
2026-05-04 17:39 25.08460 55.51888 4774 ft 282 kts 120°
2026-05-04 17:39 25.07440 55.53733 4405 ft 281 kts 120°
2026-05-04 17:40 25.06438 55.55572 4124 ft 276 kts 117°
2026-05-04 17:40 25.05862 55.57521 4041 ft 261 kts 92°
2026-05-04 17:40 25.06066 55.59426 4035 ft 243 kts 68°
2026-05-04 17:40 25.06899 55.61005 4037 ft 242 kts 46°
2026-05-04 17:41 25.08207 55.62064 3975 ft 229 kts 18°
2026-05-04 17:41 25.09737 55.62176 3884 ft 224 kts 344°
2026-05-04 17:41 25.11097 55.61357 3789 ft 222 kts 318°
2026-05-04 17:41 25.12100 55.60105 3697 ft 213 kts 306°
2026-05-04 17:42 25.12905 55.58773 3603 ft 204 kts 303°
2026-05-04 17:42 25.13635 55.57473 3486 ft 196 kts 302°
2026-05-04 17:42 25.14343 55.56201 3300 ft 193 kts 302°
2026-05-04 17:42 25.15026 55.54971 3111 ft 184 kts 302°
2026-05-04 17:43 25.15685 55.53782 2891 ft 179 kts 302°
2026-05-04 17:43 25.16326 55.52624 2662 ft 174 kts 301°
2026-05-04 17:43 25.16946 55.51505 2445 ft 169 kts 302°
2026-05-04 17:43 25.17550 55.50417 2246 ft 162 kts 301°
2026-05-04 17:44 25.18116 55.49394 2044 ft 150 kts 301°
2026-05-04 17:44 25.18636 55.48453 1860 ft 136 kts 300°
2026-05-04 17:44 25.19105 55.47608 1699 ft 126 kts 302°
2026-05-04 17:44 25.19571 55.46766 1543 ft 127 kts 302°
2026-05-04 17:45 25.20031 55.45938 1377 ft 128 kts 301°
2026-05-04 17:45 25.20493 55.45100 1211 ft 128 kts 301°
2026-05-04 17:45 25.20959 55.44262 1048 ft 129 kts 301°
2026-05-04 17:45 25.21413 55.43411 857 ft 128 kts 296°
2026-05-04 17:46 25.21869 55.42572 741 ft 131 kts 301°
2026-05-04 17:46 25.22370 55.41729 593 ft 130 kts 300°
2026-05-04 17:46 25.22844 55.40862 408 ft 131 kts 298°
2026-05-04 17:46 25.23324 55.40015 220 ft 133 kts 296°
2026-05-04 17:47 25.23792 55.39139 62 ft 126 kts 299°
2026-05-04 17:47 25.24151 55.38471 56 ft 75 kts 301°
2026-05-04 17:47 25.24377 55.38071 47 ft 58 kts 303°
2026-05-04 17:47 25.24557 55.37754 40 ft 22 kts 300°
2026-05-04 17:48 25.24612 55.37583 37 ft 24 kts 279°
2026-05-04 17:48 25.24620 55.37428 34 ft 5 kts 271°
2026-05-04 17:48 25.24621 55.37386 33 ft 5 kts 270°
2026-05-04 17:49 25.24621 55.37351 33 ft 10 kts 270°
2026-05-04 17:49 25.24633 55.37258 31 ft 13 kts 296°
2026-05-04 17:49 25.24690 55.37156 28 ft 18 kts 302°
2026-05-04 17:49 25.24747 55.37057 26 ft 22 kts 301°
2026-05-04 17:50 25.24829 55.36899 25 ft 26 kts 299°
2026-05-04 17:50 25.24879 55.36714 24 ft 24 kts 282°
2026-05-04 17:50 25.24919 55.36614 22 ft 7 kts 284°
2026-05-04 17:50 25.24886 55.36574 22 ft 9 kts 211°
2026-05-04 17:51 25.24822 55.36532 23 ft 13 kts 211°
2026-05-04 17:51 25.24764 55.36494 22 ft 8 kts 210°
2026-05-04 17:51 25.24758 55.36490 24 ft 0 kts 210°